Flag for Germany Past Weather in Frankenthal (Pfalz), Rhineland-Palatinate, Germany — Yesterday and Last 2 Weeks

Now
64 °F

Mostly cloudy.


Feels Like: 64 °F
Forecast: 58 / 72 °F
Wind: 2 mph from Southwest

Location: Wiesbaden Airport

Current Time: Jun 29, 2016 at 2:11:35 AM

Latest Report: Jun 29, 2016 at 12:58 AM


Visibility: N/A

Pressure: 29.93 "Hg

Humidity: 75%

Dew Point: 55 °F

Location of Frankenthal (Pfalz)Location

Past Weather in Frankenthal (Pfalz) — Graph

°F

Frankenthal (Pfalz) Temperature Yesterday

Maximum temperature yesterday: 70 °F (at 3:58 PM)
Minimum temperature yesterday: 58 °F (at 3:58 AM)
Average temperature yesterday: 64 °F

High & Low Weather Summary for the Past Weeks

 TemperatureHumidityPressure
High90 °F (Jun 23, 3:58 PM)94% (Jun 14, 10:58 PM)30.27 "Hg (Jun 14, 10:58 PM)
Low46 °F (Jun 20, 4:58 AM)34% (Jun 26, 5:58 PM)29.51 "Hg (Jun 14, 3:58 PM)
Average63 °F74%29.97 "Hg
* Reported Jun 14 12:58 AM — Jun 29 12:58 AM, Frankenthal (Pfalz), Weather by CustomWeather, © 2016

Note: Actual official high and low records may vary slightly from our data, if they occured in-between our weather recording intervals... More about our weather records

Advertising

Frankenthal (Pfalz) Weather History for the Previous 24 Hours

Scroll right to see more
 ConditionsComfort  
Time TempWeatherWind HumidityBarometerVisibility
12:58 AM
Wed, Jun 29
64 °FMostly cloudy.2 mph75%29.93 "HgN/A
11:58 PM
Tue, Jun 28
64 °FMostly cloudy.5 mph73%29.93 "HgN/A
10:58 PM63 °FMostly cloudy.5 mph78%29.95 "HgN/A
9:58 PM65 °FMostly cloudy.5 mph69%29.96 "HgN/A
8:58 PM68 °FMore clouds than sun.6 mph60%29.96 "HgN/A
7:58 PM68 °FOvercast.6 mph68%29.97 "HgN/A
6:58 PM70 °FBroken clouds.6 mph60%29.98 "HgN/A
5:58 PM70 °FBroken clouds.7 mph60%29.99 "HgN/A
4:58 PM70 °FPartly sunny.9 mph60%30.00 "HgN/A
3:58 PM70 °FBroken clouds.5 mph58%30.03 "HgN/A
2:58 PM70 °FBroken clouds.6 mph57%30.03 "HgN/A
1:58 PM68 °FScattered clouds.3 mph60%30.06 "HgN/A
12:58 PM67 °FBroken clouds.5 mph59%30.07 "HgN/A
11:58 AM67 °FPartly sunny.1 mph58%30.08 "HgN/A
10:58 AM66 °FMostly cloudy.5 mph60%30.09 "HgN/A
9:58 AM62 °FBroken clouds.1 mph74%30.10 "HgN/A
8:58 AM63 °FOvercast.1 mph73%30.10 "HgN/A
8:00 AM61 °FOvercast.2 mph77%30.09 "Hg2 mi
7:58 AM61 °FOvercast.2 mph79%30.09 "Hg3 mi
6:58 AM59 °FOvercast.2 mph88%30.09 "HgN/A
5:58 AM59 °FOvercast.No wind85%30.09 "HgN/A
4:58 AM59 °FMostly cloudy.3 mph82%30.10 "HgN/A
3:58 AM58 °FOvercast.No wind85%30.09 "HgN/A
2:58 AM59 °FPartly cloudy.2 mph88%30.10 "HgN/A
Weather by CustomWeather, © 2016

See weather overviewHow to use our weather pages